FW7665 Weather Reports


Display with metric or nautical units.
time (UTC)temp
F
wind
direction
speed
MPH
gust
MPH
rain 1hr
in
rain 24hr
in
rain mn
in
humidity
%
barometer
mb
20260901040004 53 0 0.0 0.0 0.00 0.14 0.14 90 1025.4
20260901035403 53 0 0.0 0.0 0.00 0.14 0.14 90 1025.4
20260901034503 53 0 0.0 0.0 0.00 0.14 0.14 90 1025.4
20260901033608 54 337 0.0 2.0 0.00 0.14 0.14 90 1025.4
20260901032708 54 346 0.0 4.0 0.01 0.14 0.14 90 1025.4
20260901031808 54 0 0.0 0.0 0.01 0.14 0.14 90 1025.4
20260901030908 54 355 0.0 1.0 0.02 0.14 0.14 90 1025.4
20260901030008 54 0 0.0 0.0 0.03 0.14 0.14 90 1025.4
20260901025408 55 0 0.0 0.0 0.05 0.14 0.14 89 1025.4
20260901024508 55 0 0.0 0.0 0.07 0.14 0.14 90 1025.4
20260901023608 55 0 0.0 0.0 0.08 0.14 0.14 90 1025.4
20260901022708 55 0 0.0 0.0 0.07 0.13 0.13 89 1025.4
20260901021808 56 0 0.0 0.0 0.07 0.13 0.13 90 1025.4
20260901020908 56 0 0.0 0.0 0.06 0.12 0.12 90 1025.4
20260901020008 56 0 0.0 0.0 0.05 0.11 0.11 89 1025.4
20260901015408 56 0 0.0 0.0 0.03 0.09 0.09 89 1025.4
20260901014529 56 351 0.0 1.0 0.01 0.07 0.07 89 1025.4
20260901013608 56 0 0.0 0.0 0.00 0.06 0.06 89 1025.4
20260901012708 56 0 0.0 0.0 0.00 0.06 0.06 89 1025.4
20260901011808 56 0 0.0 0.0 0.00 0.06 0.06 89 1025.4
20260901010908 56 0 0.0 0.0 0.00 0.06 0.06 89 1025.4
20260901010030 57 0 0.0 0.0 0.00 0.06 0.06 89 1025.4
20260901005408 57 0 0.0 0.0 0.00 0.06 0.06 89 1025.4
20260901004508 57 0 0.0 0.0 0.02 0.06 0.06 89 1025.4
20260901003608 57 0 0.0 0.0 0.03 0.06 0.06 89 1025.4
20260901002708 57 349 0.0 2.0 0.03 0.06 0.06 89 1025.4
20260901001807 58 0 0.0 0.0 0.04 0.06 0.06 89 1025.4
20260901000911 57 0 0.0 0.0 0.06 0.06 0.06 89 1025.4
20260901000029 57 0 0.0 0.0 0.06 0.06 0.06 89 1025.4
20260831235428 57 0 0.0 0.0 0.06 0.06 0.06 89 1025.4
20260831234507 56 0 0.0 0.0 0.04 0.04 0.04 88 1025.4
20260831233610 57 0 0.0 0.0 0.03 0.03 0.03 86 1025.4
20260831232707 58 0 0.0 0.0 0.03 0.03 0.03 86 1025.4
20260831231807 59 345 1.0 3.0 0.02 0.02 0.02 78 1025.4
20260831230908 62 353 0.0 3.0 0.00 0.00 0.00 67 1025.4
20260831230029 64 108 1.0 6.0 0.00 0.00 0.00 59 1025.4
20260831225407 66 177 1.0 6.0 0.00 0.00 0.00 50 1025.4
20260831224508 67 247 1.0 6.0 0.00 0.00 0.00 48 1025.4
20260831223607 67 101 1.0 7.0 0.00 0.00 0.00 47 1025.4
20260831222708 67 119 1.0 4.0 0.00 0.00 0.00 52 1025.4
20260831221807 67 74 1.0 6.0 0.00 0.00 0.00 48 1025.4
20260831220907 67 279 2.0 4.0 0.00 0.00 0.00 47 1025.4
20260831220007 67 115 0.0 3.0 0.00 0.00 0.00 52 1025.4
20260831215429 67 123 1.0 4.0 0.00 0.00 0.00 49 1025.4
20260831214507 68 111 3.0 9.0 0.00 0.00 0.00 45 1025.4
20260831213608 68 103 2.0 7.0 0.00 0.00 0.00 48 1025.4
20260831212728 68 108 2.0 7.0 0.00 0.00 0.00 46 1025.4
20260831211807 67 126 1.0 3.0 0.00 0.00 0.00 49 1026.8
20260831210907 67 126 0.0 3.0 0.00 0.00 0.00 55 1026.8
20260831210007 68 128 1.0 4.0 0.00 0.00 0.00 55 1026.8
20260831205407 67 111 1.0 4.0 0.00 0.00 0.00 53 1026.8
20260831204531 68 326 2.0 4.0 0.00 0.00 0.00 52 1026.8
20260831203607 66 31 1.0 4.0 0.00 0.00 0.00 57 1026.8
20260831202707 63 7 1.0 2.0 0.00 0.00 0.00 77 1026.8
20260831201807 65 17 1.0 4.0 0.00 0.00 0.00 70 1026.8
20260831200907 67 95 1.0 3.0 0.00 0.00 0.00 56 1026.8
20260831200007 68 107 3.0 8.0 0.00 0.02 0.00 46 1026.8
20260831195428 69 115 2.0 4.0 0.00 0.03 0.00 50 1026.8
20260831194507 70 116 3.0 10.0 0.00 0.03 0.00 40 1026.8
20260831193607 70 74 1.0 4.0 0.00 0.03 0.00 47 1026.8
20260831192707 71 100 4.0 9.0 0.00 0.03 0.00 42 1026.8
20260831191828 70 114 2.0 8.0 0.00 0.03 0.00 43 1026.8
20260831190906 69 117 1.0 6.0 0.00 0.03 0.00 47 1026.8
20260831190028 69 108 1.0 4.0 0.00 0.03 0.00 42 1026.8
20260831185427 70 111 1.0 3.0 0.00 0.03 0.00 41 1026.8
20260831184527 70 114 1.0 3.0 0.00 0.03 0.00 41 1026.8
20260831183606 72 69 1.0 6.0 0.00 0.03 0.00 38 1026.8
20260831182706 71 97 1.0 3.0 0.00 0.03 0.00 44 1026.8
20260831181807 70 112 2.0 6.0 0.00 0.03 0.00 45 1026.8
20260831180906 70 119 2.0 6.0 0.00 0.03 0.00 41 1027.1
20260831180007 69 109 3.0 7.0 0.00 0.03 0.00 44 1027.1
20260831175428 68 112 2.0 7.0 0.00 0.03 0.00 44 1027.1
20260831174527 68 122 2.0 7.0 0.00 0.03 0.00 45 1027.1
20260831173607 68 106 2.0 3.0 0.00 0.03 0.00 43 1027.1
20260831172706 68 112 2.0 4.0 0.00 0.03 0.00 44 1027.1
20260831171806 69 108 2.0 6.0 0.00 0.03 0.00 45 1027.1
20260831170907 68 89 2.0 4.0 0.00 0.03 0.00 45 1027.1
20260831170006 68 112 2.0 4.0 0.00 0.03 0.00 44 1027.1
20260831165406 68 126 1.0 3.0 0.00 0.03 0.00 49 1027.1
20260831164506 67 127 0.0 3.0 0.00 0.03 0.00 49 1027.1
20260831163606 66 257 1.0 3.0 0.00 0.03 0.00 53 1027.1
20260831162706 67 257 1.0 3.0 0.00 0.03 0.00 44 1027.1
20260831161827 66 259 0.0 2.0 0.00 0.03 0.00 47 1027.1
20260831160927 65 259 0.0 2.0 0.00 0.03 0.00 50 1027.1
20260831160006 61 0 0.0 0.0 0.00 0.03 0.00 58 1027.1
20260831155406 58 0 0.0 0.0 0.00 0.03 0.00 75 1027.1
20260831154506 57 0 0.0 0.0 0.00 0.03 0.00 74 1027.1
20260831153606 56 0 0.0 0.0 0.00 0.03 0.00 76 1027.1
20260831152727 55 0 0.0 0.0 0.00 0.03 0.00 78 1027.1
20260831151827 54 0 0.0 0.0 0.00 0.03 0.00 82 1027.1
20260831150907 54 0 0.0 0.0 0.00 0.03 0.00 85 1027.4
20260831150027 53 0 0.0 0.0 0.00 0.03 0.00 85 1027.4
20260831145427 52 0 0.0 0.0 0.00 0.03 0.00 85 1027.4
20260831144505 52 0 0.0 0.0 0.00 0.03 0.00 85 1027.4
20260831143627 52 0 0.0 0.0 0.00 0.03 0.00 85 1027.4
20260831142727 51 0 0.0 0.0 0.00 0.03 0.00 85 1027.4
20260831141805 51 0 0.0 0.0 0.00 0.03 0.00 85 1027.4
20260831140905 50 0 0.0 0.0 0.00 0.03 0.00 85 1026.4
20260831140006 50 0 0.0 0.0 0.00 0.03 0.00 85 1026.4
20260831135405 49 0 0.0 0.0 0.00 0.03 0.00 85 1026.4
20260831134506 49 0 0.0 0.0 0.00 0.03 0.00 86 1026.4
20260831133605 49 0 0.0 0.0 0.00 0.03 0.00 85 1026.4
20260831132705 49 0 0.0 0.0 0.00 0.03 0.00 84 1026.1
20260831131805 49 0 0.0 0.0 0.00 0.03 0.00 84 1026.1
20260831130926 49 0 0.0 0.0 0.00 0.03 0.00 84 1026.1
20260831130005 48 0 0.0 0.0 0.00 0.03 0.00 83 1026.1
20260831125405 48 0 0.0 0.0 0.00 0.03 0.00 83 1026.1
20260831124507 49 0 0.0 0.0 0.00 0.03 0.00 84 1026.1
20260831123605 48 0 0.0 0.0 0.00 0.03 0.00 83 1026.1
20260831122705 48 0 0.0 0.0 0.00 0.03 0.00 83 1025.6
20260831121805 48 0 0.0 0.0 0.00 0.03 0.00 83 1025.6
20260831120905 48 0 0.0 0.0 0.00 0.03 0.00 83 1025.6
20260831120005 48 0 0.0 0.0 0.00 0.03 0.00 84 1025.6
20260831115405 48 0 0.0 0.0 0.00 0.03 0.00 83 1025.6
20260831114505 48 0 0.0 0.0 0.00 0.03 0.00 83 1025.6
20260831113605 48 0 0.0 0.0 0.00 0.03 0.00 83 1025.6
20260831112705 48 0 0.0 0.0 0.00 0.03 0.00 83 1025.6
20260831111805 48 0 0.0 0.0 0.00 0.03 0.00 83 1025.2
20260831110905 48 0 0.0 0.0 0.00 0.03 0.00 83 1025.2
20260831110005 48 0 0.0 0.0 0.00 0.03 0.00 83 1025.2
20260831105405 48 0 0.0 0.0 0.00 0.03 0.00 83 1025.2
20260831104505 48 0 0.0 0.0 0.00 0.03 0.00 83 1025.2
20260831103605 48 0 0.0 0.0 0.00 0.03 0.00 82 1025.2
20260831102705 48 0 0.0 0.0 0.00 0.03 0.00 82 1025.2
20260831101805 48 0 0.0 0.0 0.00 0.03 0.00 82 1025.2
20260831100926 48 259 0.0 3.0 0.00 0.03 0.00 82 1025.2
20260831100020 48 0 0.0 0.0 0.00 0.03 0.00 81 1025.2
20260831095405 48 0 0.0 0.0 0.00 0.03 0.00 82 1024.9
20260831094505 48 0 0.0 0.0 0.00 0.03 0.00 82 1024.9
20260831093604 48 0 0.0 0.0 0.00 0.03 0.00 82 1024.9
20260831092704 49 0 0.0 0.0 0.00 0.03 0.00 83 1024.9
20260831091804 49 0 0.0 0.0 0.00 0.03 0.00 82 1024.9
20260831090906 49 0 0.0 0.0 0.00 0.03 0.00 82 1024.9
20260831090005 49 0 0.0 0.0 0.00 0.03 0.00 83 1025.2
20260831085404 49 0 0.0 0.0 0.00 0.03 0.00 83 1025.2
20260831084505 49 0 0.0 0.0 0.00 0.03 0.00 82 1025.2
20260831083604 49 0 0.0 0.0 0.00 0.03 0.00 82 1025.2
20260831082725 49 0 0.0 0.0 0.00 0.03 0.00 81 1025.2
20260831081825 50 0 0.0 0.0 0.00 0.03 0.00 82 1025.2
20260831080904 50 0 0.0 0.0 0.00 0.03 0.00 82 1025.2
20260831080005 50 0 0.0 0.0 0.00 0.03 0.00 81 1025.6
20260831075425 50 0 0.0 0.0 0.00 0.03 0.00 81 1025.6
20260831074504 50 0 0.0 0.0 0.00 0.03 0.00 81 1025.6
20260831073604 50 0 0.0 0.0 0.00 0.03 0.00 80 1025.6
20260831072704 50 0 0.0 0.0 0.00 0.03 0.00 82 1025.6
20260831071804 50 0 0.0 0.0 0.00 0.03 0.00 81 1026.0
20260831070904 50 0 0.0 0.0 0.00 0.03 0.00 80 1026.0
20260831070005 51 0 0.0 0.0 0.00 0.03 0.00 80 1026.0
20260831065404 51 0 0.0 0.0 0.00 0.03 0.00 80 1026.0
20260831064504 51 0 0.0 0.0 0.00 0.03 0.00 79 1026.0
20260831063604 51 0 0.0 0.0 0.00 0.03 0.00 79 1026.0
20260831062704 51 0 0.0 0.0 0.00 0.03 0.00 79 1026.0
20260831061804 51 0 0.0 0.0 0.00 0.03 0.00 79 1026.7
20260831060904 51 0 0.0 0.0 0.00 0.03 0.00 79 1026.7
20260831060014 52 0 0.0 0.0 0.00 0.03 0.00 78 1026.7
20260831055425 52 0 0.0 0.0 0.00 0.03 0.03 77 1026.7
20260831054504 52 0 0.0 0.0 0.00 0.03 0.03 78 1026.7
20260831053604 52 0 0.0 0.0 0.00 0.03 0.03 78 1026.7
20260831052704 53 0 0.0 0.0 0.00 0.03 0.03 77 1026.7
20260831051803 53 0 0.0 0.0 0.00 0.03 0.03 77 1027.4
20260831050904 53 0 0.0 0.0 0.00 0.03 0.03 78 1027.4
20260831050004 53 0 0.0 0.0 0.00 0.03 0.03 77 1027.4
20260831045403 53 0 0.0 0.0 0.00 0.03 0.03 76 1027.4
20260831044503 53 0 0.0 0.0 0.00 0.03 0.03 76 1027.4
20260831043603 53 0 0.0 0.0 0.00 0.03 0.03 74 1027.4
20260831042703 53 0 0.0 0.0 0.00 0.03 0.03 77 1027.4
20260831041804 53 0 0.0 0.0 0.00 0.03 0.03 78 1026.2
20260831040903 53 0 0.0 0.0 0.00 0.03 0.03 77 1026.2